7 * 24
多渠道服务支持
STARLINK-11180是美国太空探索技术公司 SpaceX 星链互联网卫星星座中的一颗卫星,于2024年7月3日发射。星链计划旨在构建全球卫星互联网星座,为全球提供高速互联网接入服务,该卫星入轨后将加入庞大星链网络,补充增强星座覆盖能力,提升相关区域网络服务性能。
美国
(US)
| 数据来源 | 国际轨道数据 |
| 星历时间: | 2026-05-24T01:40:04+0800 1天前 查看轨道信息 |
| 半长轴: | 6737.876km |
| 偏心率: | 0.0001101 |
| 轨道倾角: | 53.158° |
| 近地点辐角 | 93.734° |
| 升交点赤经 | 151.110° |
| 平近点角 | 266.381° |
| 近地点: | 358.997km |
| 远地点: | 360.481km |
| 周期: | 91.737分钟 |
| 每日圈数: | 15.69706 |